GENESIS 1

Last updated on Tue Jul 01 2025 00:02:15 GMT+0000 (Coordinated Universal Time)

1 29252U 06029A 25180.93715396 .01566222 76104-5 55191-3 0 9997 2 29252 64.4863 287.6519 0023559 286.2487 187.6530 16.23932632 49596
UTC large
Height (km)
Speed (km/s)
/
Latitude / Longitude
Inclination (degrees)
Orbital Period (minutes)
Azimuth
Elevation
Range (km)
Doppler Factor

Next 0 passes for location: London (51.5072 / 0.1276)

Sorry there are no passes over London.